Weather History for Holland, MI

Change the Weather History Date:

Thursday, January 17, 2013

  Actual Average Record
Temperature  
Mean Temperature 32 °F 26 °F  
Max Temperature 38 °F 32 °F 57 °F (1952)
Min Temperature 25 °F 20 °F -8 °F (1982)
Degree Days  
Heating Degree Days 33 39  
Month to date heating degree days 544 654  
Since 1 July heating degree days 2648 2922  
Cooling Degree Days 0 0  
Month to date cooling degree days 0 0  
Year to date cooling degree days 0 0  
Moisture  
Dew Point 17 °F    
Average Humidity 57    
Maximum Humidity 64    
Minimum Humidity 50    
Precipitation  
Precipitation T in 0.07 in 0.75 in (1969)
Month to date precipitation 1.20 1.15  
Year to date precipitation 1.20 1.15  
Sea Level Pressure  
Sea Level Pressure 30.23 in    
Wind  
Wind Speed 10 mph (NW)    
Max Wind Speed 21 mph    
Max Gust Speed 29 mph    
Visibility 10 miles    
Events      
T = Trace of Precipitation, MM = Missing Value Source: NWS Daily Summary

Daily Weather History Graph

Daily Weather History Graph

Search for Another Location

Airport:

Trip Planner

Search our weather history database for the weather conditions in past years. The results will help you decide how hot, cold, wet, or windy it might be!

Date:

Astronomy

Jan. 17, 2013 Rise Set
Actual Time 8:10 AM EST 5:38 PM EST
Civil Twilight 7:39 AM EST 6:09 PM EST
Nautical Twilight 7:05 AM EST 6:44 PM EST
Astronomical Twilight 6:31 AM EST 7:18 PM EST
Moon 11:07 AM EST (1/17) No Moon Set
Length of Visible Light 10h 30m
Length of Day
9h 27m
Waxing Crescent, 37% of the Moon is Illuminated
Jan 17
Waxing Crescent
Jan 18
First Quarter
Jan 26
Full
Feb 3
Last Quarter
Feb 10
New

Hourly Weather History & Observations

Time (EST) Temp. Windchill Dew Point Humidity Pressure Visibility Wind Dir Wind Speed Gust Speed Precip Events Conditions
12:30 AM 37.4 °F 30.3 °F 26.6 °F 65% 29.99 in 10.0 mi NW 10.4 mph 18.4 mph N/A   Overcast
12:51 AM 37.4 °F 29.8 °F 24.8 °F 60% 30.01 in 10.0 mi NW 11.5 mph 16.1 mph N/A   Overcast
12:53 AM 37.9 °F 32.1 °F 25.0 °F 60% 30.03 in 10.0 mi NW 8.1 mph 16.1 mph N/A   Overcast
1:06 AM 37.4 °F 31.4 °F 26.6 °F 65% 30.01 in 10.0 mi NW 8.1 mph - N/A   Overcast
2:53 AM 37.0 °F 32.4 °F 24.1 °F 59% 30.07 in 10.0 mi WNW 5.8 mph - N/A   Overcast
3:53 AM 37.0 °F 31.6 °F 21.9 °F 54% 30.09 in 10.0 mi NW 6.9 mph - N/A   Overcast
4:53 AM 35.1 °F 27.9 °F 21.9 °F 59% 30.13 in 10.0 mi NNW 9.2 mph - N/A   Overcast
5:53 AM 34.0 °F 31.0 °F 19.9 °F 56% 30.16 in 10.0 mi Variable 3.5 mph - N/A   Overcast
6:53 AM 32.0 °F - 18.0 °F 56% 30.18 in 10.0 mi Calm Calm - N/A   Overcast
7:53 AM 32.0 °F - 19.0 °F 59% 30.20 in 10.0 mi Calm Calm - N/A   Overcast
8:53 AM 33.1 °F 24.4 °F 19.9 °F 59% 30.23 in 10.0 mi WNW 11.5 mph 18.4 mph N/A   Overcast
9:53 AM 30.9 °F 21.2 °F 16.0 °F 54% 30.26 in 10.0 mi WNW 12.7 mph 18.4 mph N/A   Scattered Clouds
10:53 AM 30.9 °F 21.2 °F 16.0 °F 54% 30.27 in 10.0 mi NW 12.7 mph 20.7 mph N/A   Scattered Clouds
11:26 AM 30.2 °F 20.2 °F 17.6 °F 60% 30.25 in 10.0 mi NW 12.7 mph 24.2 mph N/A   Mostly Cloudy
11:53 AM 30.0 °F 20.0 °F 16.0 °F 56% 30.28 in 10.0 mi WNW 12.7 mph 20.7 mph N/A   Mostly Cloudy
12:18 PM 30.2 °F 20.2 °F 15.8 °F 55% 30.25 in 10.0 mi NW 12.7 mph 21.9 mph N/A   Scattered Clouds
12:53 PM 30.0 °F 19.5 °F 16.0 °F 56% 30.27 in 10.0 mi NW 13.8 mph 26.5 mph N/A   Mostly Cloudy
1:53 PM 28.0 °F 17.5 °F 15.1 °F 58% 30.28 in 10.0 mi WNW 12.7 mph 24.2 mph N/A   Overcast
2:53 PM 27.0 °F 14.7 °F 12.0 °F 53% 30.28 in 10.0 mi NW 16.1 mph 23.0 mph N/A   Overcast
3:53 PM 26.1 °F 13.6 °F 10.9 °F 53% 30.30 in 10.0 mi NNW 16.1 mph 23.0 mph N/A   Overcast
4:53 PM 25.0 °F 17.1 °F 10.0 °F 53% 30.30 in 10.0 mi NW 6.9 mph 19.6 mph N/A   Mostly Cloudy
5:53 PM 26.1 °F 18.4 °F 10.0 °F 51% 30.32 in 10.0 mi NNW 6.9 mph 16.1 mph N/A   Overcast
6:53 PM 26.1 °F 17.6 °F 14.0 °F 60% 30.33 in 10.0 mi NW 8.1 mph 19.6 mph 0.00 in   Overcast
7:04 PM 26.6 °F 15.2 °F 12.2 °F 55% 30.30 in 10.0 mi NW 13.8 mph 19.6 mph N/A   Overcast
7:53 PM 27.0 °F 15.2 °F 10.9 °F 51% 30.35 in 10.0 mi NW 15.0 mph 21.9 mph N/A   Overcast
8:53 PM 27.0 °F 16.1 °F 10.0 °F 49% 30.36 in 10.0 mi NW 12.7 mph 25.3 mph N/A   Overcast
9:53 PM 27.0 °F 16.1 °F 10.0 °F 49% 30.36 in 10.0 mi NW 12.7 mph 26.5 mph N/A   Overcast
10:53 PM 26.1 °F 16.2 °F 10.0 °F 51% 30.36 in 10.0 mi NNW 10.4 mph 21.9 mph N/A   Overcast
11:53 PM 26.1 °F 17.6 °F 10.9 °F 53% 30.37 in 10.0 mi NW 8.1 mph 20.7 mph N/A   Overcast